GW3103 Weather Reports


time (UTC)temp
C
wind
direction
speed
KPH
gust
KPH
rain 1hr
cm
rain 24hr
cm
rain mn
cm
humidity
%
barometer
mb
20260510065729 10 51 1.6 1.6 0.00 0.00 0.00 99 1011.1
20260510065226 10 34 1.6 1.6 0.00 0.00 0.00 99 1011.0
20260510064723 10 20 1.6 1.6 0.00 0.00 0.00 99 1010.9
20260510064221 10 358 1.6 1.6 0.00 0.00 0.00 99 1010.8
20260510063717 9 114 1.6 1.6 0.00 0.00 0.00 99 1010.7
20260510063213 9 44 1.6 1.6 0.00 0.00 0.00 98 1010.4
20260510062710 9 44 0.0 0.0 0.00 0.00 0.00 98 1010.5
20260510062206 10 44 0.0 0.0 0.00 0.00 0.00 98 1010.4
20260510061701 10 42 0.0 1.6 0.00 0.00 0.00 98 1010.4
20260510061158 10 46 0.0 0.0 0.00 0.00 0.00 98 1010.2
20260510060655 10 47 0.0 0.0 0.00 0.00 0.00 98 1010.3
20260510060151 10 42 0.0 0.0 0.00 0.00 0.00 98 1010.4
20260510055648 10 41 0.0 0.0 0.00 0.00 0.00 98 1010.5
20260510055146 11 40 0.0 0.0 0.00 0.00 0.00 98 1010.7
20260510054641 11 325 4.8 4.8 0.00 0.00 0.00 98 1010.7
20260510054137 11 41 0.0 1.6 0.00 0.00 0.00 98 1010.5
20260510053636 11 45 0.0 1.6 0.00 0.00 0.00 98 1010.6
20260510053133 11 56 0.0 0.0 0.00 0.00 0.00 98 1010.8
20260510052629 11 43 0.0 0.0 0.00 0.00 0.00 98 1010.6
20260510052125 11 48 0.0 0.0 0.00 0.00 0.00 98 1010.5
20260510051621 11 46 0.0 0.0 0.00 0.00 0.00 98 1010.6
20260510051118 11 39 0.0 0.0 0.00 0.00 0.00 98 1010.4
20260510050615 11 312 1.6 3.2 0.00 0.00 0.00 98 1010.1
20260510050112 11 9 3.2 3.2 0.00 0.00 0.00 98 1010.1
20260510045604 11 48 0.0 0.0 0.00 0.00 0.00 98 1010.5
20260510045059 11 21 0.0 1.6 0.00 0.00 0.00 98 1010.3
20260510044556 11 29 0.0 1.6 0.00 0.00 0.00 98 1010.3
20260510044054 11 171 1.6 3.2 0.00 0.00 0.00 98 1010.3
20260510043548 11 36 1.6 3.2 0.00 0.00 0.00 98 1010.1
20260510043045 11 299 3.2 3.2 0.00 0.00 0.00 98 1010.2
20260510042539 11 15 3.2 3.2 0.00 0.00 0.00 98 1010.4
20260510042034 11 201 3.2 3.2 0.00 0.00 0.00 98 1009.9
20260510041531 11 230 1.6 3.2 0.00 0.00 0.00 99 1010.3
20260510041028 11 43 1.6 1.6 0.00 0.00 0.00 98 1010.3
20260510040520 11 18 1.6 1.6 0.00 0.00 0.00 98 1010.0
20260510040015 11 69 1.6 1.6 0.00 0.64 0.64 98 1010.1
20260510035512 11 24 1.6 1.6 0.00 0.64 0.64 99 1010.2
20260510035011 11 21 4.8 4.8 0.00 0.64 0.64 99 1010.3
20260510034511 11 100 1.6 3.2 0.00 0.64 0.64 99 1010.2
20260510034006 11 41 1.6 1.6 0.00 0.64 0.64 99 1010.1
20260510033502 11 203 1.6 1.6 0.00 0.64 0.64 99 1010.3
20260510032959 11 43 0.0 0.0 0.00 0.64 0.64 99 1010.0
20260510032456 11 340 1.6 3.2 0.00 0.64 0.64 99 1010.1
20260510031951 11 46 0.0 0.0 0.00 0.64 0.64 99 1010.0
20260510031447 11 41 0.0 1.6 0.00 0.64 0.64 99 1009.7
20260510030943 11 41 0.0 0.0 0.00 0.64 0.64 99 1009.8
20260510030438 10 39 1.6 3.2 0.00 0.64 0.64 99 1009.9
20260510025936 10 45 0.0 0.0 0.00 0.64 0.64 99 1010.0
20260510025433 10 47 0.0 1.6 0.00 0.64 0.64 99 1010.0
20260510024931 10 41 0.0 0.0 0.00 0.64 0.64 99 1009.8
20260510024427 10 38 0.0 1.6 0.00 0.64 0.64 99 1009.8
20260510023923 10 36 0.0 0.0 0.00 0.64 0.64 99 1009.8
20260510023419 9 39 1.6 1.6 0.00 0.64 0.64 99 1010.1
20260510022917 9 44 0.0 0.0 0.00 0.64 0.64 99 1009.6
20260510022415 9 41 0.0 0.0 0.00 0.64 0.64 99 1010.0
20260510021915 9 44 0.0 0.0 0.00 0.64 0.64 98 1010.0
20260510021413 9 45 0.0 0.0 0.00 0.64 0.64 98 1010.0
20260510020909 9 44 0.0 0.0 0.00 0.64 0.64 98 1009.8
20260510020404 9 44 0.0 0.0 0.00 0.64 0.64 98 1009.8
20260510015900 10 43 0.0 0.0 0.00 0.64 0.64 98 1009.6
20260510015356 10 45 0.0 1.6 0.00 0.64 0.64 98 1009.8
20260510014851 10 42 0.0 0.0 0.00 0.64 0.64 98 1009.6
20260510014349 10 43 1.6 1.6 0.00 0.64 0.64 98 1009.6
20260510013845 10 52 0.0 0.0 0.00 0.64 0.64 98 1009.6
20260510013341 10 49 0.0 0.0 0.00 0.64 0.64 98 1009.8
20260510012836 10 41 0.0 0.0 0.00 0.64 0.64 98 1009.8
20260510012335 10 45 0.0 0.0 0.00 0.64 0.64 98 1009.6
20260510011831 10 45 0.0 0.0 0.00 0.64 0.64 98 1009.6
20260510011326 10 45 0.0 0.0 0.00 0.64 0.64 97 1009.5
20260510010823 10 31 1.6 1.6 0.00 0.64 0.64 97 1009.6
20260510010320 10 45 0.0 0.0 0.00 0.64 0.64 97 1009.6
20260510005817 10 47 0.0 0.0 0.00 0.64 0.64 97 1009.3
20260510005313 10 46 0.0 1.6 0.00 0.64 0.64 97 1009.3
20260510004811 11 47 0.0 1.6 0.00 0.64 0.64 97 1009.4
20260510004308 11 44 0.0 0.0 0.00 0.64 0.64 97 1009.1
20260510003806 11 49 0.0 0.0 0.00 0.64 0.64 96 1008.9
20260510003303 11 49 0.0 0.0 0.00 0.64 0.64 96 1009.0
20260510002801 11 48 1.6 1.6 0.00 0.64 0.64 96 1009.0
20260510002259 11 46 0.0 0.0 0.00 0.64 0.64 95 1008.9
20260510001755 11 46 0.0 0.0 0.00 0.64 0.64 95 1009.0
20260510001254 12 46 1.6 3.2 0.00 0.64 0.64 94 1008.9
20260510000749 12 49 0.0 0.0 0.00 0.64 0.64 93 1008.5
20260510000248 12 51 0.0 0.0 0.00 0.64 0.64 93 1008.6
20260509235744 12 52 0.0 0.0 0.00 0.64 0.64 92 1008.6
20260509235240 13 43 0.0 0.0 0.00 0.64 0.64 91 1008.5
20260509234736 13 111 1.6 1.6 0.00 0.64 0.64 89 1008.7
20260509234233 13 55 0.0 0.0 0.00 0.64 0.64 89 1008.4
20260509233731 13 42 0.0 0.0 0.00 0.64 0.64 89 1008.5
20260509233228 13 26 1.6 3.2 0.00 0.64 0.64 88 1008.5
20260509232724 14 294 3.2 4.8 0.00 0.64 0.64 87 1008.5
20260509232222 14 21 1.6 1.6 0.00 0.64 0.64 87 1008.2
20260509231718 14 218 4.8 4.8 0.00 0.64 0.64 86 1008.5
20260509231215 14 348 1.6 3.2 0.00 0.64 0.64 86 1008.3
20260509230713 15 43 0.0 1.6 0.00 0.64 0.64 85 1008.1
20260509230209 15 76 0.0 1.6 0.00 0.64 0.64 85 1008.3
20260509225705 15 252 1.6 1.6 0.00 0.64 0.64 83 1008.4
20260509225201 15 325 1.6 3.2 0.00 0.64 0.64 84 1008.3
20260509224657 15 32 1.6 1.6 0.00 0.64 0.64 84 1008.3
20260509224154 15 36 1.6 1.6 0.00 0.64 0.64 84 1008.3
20260509223650 15 237 8.0 11.3 0.00 0.64 0.64 84 1008.4
20260509223148 16 38 1.6 3.2 0.00 0.64 0.64 82 1008.6
20260509222645 15 145 1.6 1.6 0.00 0.64 0.64 83 1008.6
20260509222140 15 2 1.6 3.2 0.00 0.64 0.64 83 1008.5
20260509221636 15 189 3.2 3.2 0.00 0.64 0.64 83 1008.5
20260509221132 15 30 1.6 3.2 0.00 0.64 0.64 84 1008.6
20260509220628 15 335 3.2 3.2 0.00 0.64 0.64 85 1008.4
20260509220124 15 82 1.6 3.2 0.00 0.64 0.64 84 1008.5
20260509215620 15 275 1.6 3.2 0.00 0.64 0.64 85 1008.5
20260509215117 15 165 1.6 3.2 0.00 0.64 0.64 86 1008.4
20260509214614 15 207 3.2 3.2 0.00 0.64 0.64 86 1008.8
20260509214110 15 28 3.2 3.2 0.00 0.64 0.64 87 1008.7
20260509213602 15 40 1.6 1.6 0.00 0.64 0.64 88 1008.7
20260509213058 15 34 1.6 1.6 0.00 0.64 0.64 87 1008.8
20260509212555 15 54 0.0 1.6 0.00 0.64 0.64 87 1008.7
20260509212052 15 251 3.2 3.2 0.00 0.64 0.64 84 1008.9
20260509211548 15 28 0.0 1.6 0.00 0.64 0.64 87 1008.9
20260509211045 14 193 1.6 3.2 0.00 0.64 0.64 90 1008.7
20260509210542 14 351 1.6 1.6 0.00 0.64 0.64 89 1008.9
20260509210038 15 333 3.2 3.2 0.00 0.64 0.64 86 1008.8
20260509205538 15 50 0.0 0.0 0.00 0.64 0.64 87 1008.8
20260509205033 15 183 3.2 4.8 0.00 0.64 0.64 86 1009.0
20260509204530 15 55 0.0 0.0 0.00 0.64 0.64 89 1008.9
20260509204026 14 97 1.6 3.2 0.00 0.64 0.64 89 1008.9
20260509203522 15 130 1.6 3.2 0.00 0.64 0.64 89 1009.3
20260509203021 13 47 0.0 0.0 0.00 0.64 0.64 90 1009.1
20260509202520 14 48 0.0 1.6 0.00 0.64 0.64 91 1009.3
20260509202016 13 42 0.0 0.0 0.00 0.64 0.64 92 1009.6
20260509201511 13 332 3.2 3.2 0.00 0.64 0.64 92 1009.4
20260509201009 13 48 0.0 0.0 0.00 0.64 0.64 93 1009.4
20260509200504 13 27 1.6 1.6 0.00 0.64 0.64 92 1009.5
20260509200000 13 40 0.0 0.0 0.00 0.64 0.64 93 1009.5
20260509195456 13 41 1.6 1.6 0.00 0.64 0.64 93 1009.5
20260509194956 13 42 0.0 1.6 0.00 0.64 0.64 93 1009.7
20260509194451 13 41 0.0 0.0 0.00 0.64 0.64 94 1009.6
20260509193948 13 39 0.0 0.0 0.00 0.64 0.64 95 1009.8
20260509193443 13 52 0.0 0.0 0.00 0.64 0.64 96 1009.6
20260509192939 12 44 0.0 0.0 0.00 0.64 0.64 95 1009.8
20260509192436 12 43 0.0 0.0 0.00 0.64 0.64 95 1009.6
20260509191931 12 44 0.0 0.0 0.18 0.64 0.64 95 1009.8
20260509191426 12 50 0.0 0.0 0.18 0.64 0.64 95 1010.2
20260509190922 12 61 0.0 0.0 0.00 0.61 0.61 96 1010.1
20260509190420 12 44 0.0 0.0 0.00 0.61 0.61 96 1010.2
20260509185918 12 41 0.0 0.0 0.13 0.61 0.61 95 1010.4
20260509185415 12 43 0.0 0.0 0.13 0.61 0.61 95 1010.3
20260509184911 11 38 0.0 1.6 0.18 0.58 0.58 95 1010.7
20260509184408 12 14 1.6 3.2 0.18 0.58 0.58 95 1010.5
20260509183905 12 31 1.6 1.6 0.13 0.56 0.56 95 1010.6
20260509183359 12 44 0.0 0.0 0.30 0.56 0.56 95 1010.7
20260509182856 12 46 0.0 1.6 0.18 0.53 0.53 94 1010.7
20260509182353 12 90 1.6 1.6 0.00 0.51 0.51 95 1010.7
20260509181851 12 50 0.0 0.0 0.18 0.51 0.51 95 1010.6
20260509181347 12 44 0.0 0.0 0.18 0.51 0.51 95 1010.6
20260509180845 12 48 0.0 0.0 0.00 0.48 0.48 95 1010.5
20260509180341 12 47 0.0 0.0 0.13 0.48 0.48 95 1010.5
20260509175838 12 48 0.0 0.0 0.13 0.48 0.48 95 1010.7
20260509175334 12 44 0.0 0.0 0.30 0.46 0.46 95 1010.7
20260509174830 12 38 0.0 0.0 0.30 0.46 0.46 95 1010.4
20260509174326 12 24 0.0 0.0 0.30 0.41 0.41 95 1010.6
20260509173822 12 45 0.0 0.0 0.30 0.38 0.38 95 1010.8
20260509173317 12 47 0.0 0.0 0.43 0.38 0.38 95 1010.9
20260509172814 12 42 0.0 1.6 0.30 0.33 0.33 95 1010.7
20260509172311 12 31 1.6 1.6 0.30 0.30 0.30 94 1010.8
20260509171806 12 34 1.6 1.6 0.48 0.28 0.28 94 1010.5
20260509171303 12 43 0.0 0.0 0.48 0.25 0.25 94 1010.6
20260509170759 12 36 0.0 1.6 0.61 0.23 0.23 93 1010.9
20260509170255 12 313 3.2 3.2 0.61 0.18 0.18 92 1010.9
20260509165754 12 324 3.2 3.2 0.48 0.13 0.13 92 1011.0
20260509165249 12 31 1.6 1.6 0.18 0.08 0.08 90 1010.8
20260509164746 12 44 0.0 0.0 0.30 0.08 0.08 90 1010.8
20260509164242 13 43 0.0 0.0 0.13 0.05 0.05 88 1010.9
20260509163738 13 93 3.2 3.2 0.00 0.03 0.03 87 1010.9
20260509163235 13 37 1.6 1.6 0.18 0.03 0.03 87 1011.0
20260509162733 13 36 1.6 1.6 0.18 0.03 0.03 85 1010.9
20260509162228 13 302 1.6 3.2 0.00 0.00 0.00 83 1010.9
20260509161723 14 40 1.6 1.6 0.00 0.00 0.00 84 1010.9
20260509161220 15 48 0.0 0.0 0.00 0.00 0.00 86 1010.7
20260509160715 14 31 3.2 3.2 0.00 0.00 0.00 84 1010.9
20260509160212 14 329 1.6 3.2 0.00 0.00 0.00 84 1010.8
20260509155707 15 53 1.6 1.6 0.00 0.00 0.00 84 1010.9
20260509155204 14 103 1.6 1.6 0.00 0.00 0.00 85 1011.1
20260509154700 13 20 1.6 1.6 0.00 0.00 0.00 86 1010.9
20260509154157 13 217 3.2 3.2 0.00 0.00 0.00 85 1011.1
20260509153654 13 19 1.6 3.2 0.00 0.00 0.00 86 1011.2
20260509153150 13 50 1.6 3.2 0.00 0.00 0.00 86 1011.0
20260509152646 13 221 4.8 4.8 0.00 0.00 0.00 86 1011.0
20260509152144 13 57 1.6 1.6 0.00 0.00 0.00 85 1011.3
20260509151640 13 42 0.0 0.0 0.00 0.00 0.00 84 1011.3
20260509151137 13 52 0.0 0.0 0.00 0.00 0.00 85 1011.0
20260509150635 13 31 1.6 1.6 0.00 0.00 0.00 85 1011.4
20260509150133 13 50 0.0 0.0 0.00 0.00 0.00 86 1010.8
20260509145629 13 51 0.0 0.0 0.00 0.00 0.00 86 1010.7
20260509145124 13 48 0.0 0.0 0.00 0.00 0.00 85 1010.7
20260509144621 13 47 0.0 0.0 0.00 0.00 0.00 84 1010.7
20260509144118 13 51 0.0 0.0 0.00 0.00 0.00 85 1010.7
20260509143615 13 53 0.0 0.0 0.00 0.00 0.00 86 1010.7
20260509143113 13 43 0.0 0.0 0.00 0.00 0.00 86 1010.6
20260509142608 12 46 0.0 1.6 0.00 0.00 0.00 87 1011.0
20260509142105 12 58 0.0 1.6 0.00 0.00 0.00 86 1011.0
20260509141601 12 32 1.6 1.6 0.00 0.00 0.00 87 1011.0
20260509141057 12 42 0.0 1.6 0.00 0.00 0.00 87 1010.9
20260509140555 12 40 3.2 3.2 0.00 0.00 0.00 88 1010.9
20260509140052 12 41 1.6 1.6 0.00 0.00 0.00 87 1010.7
20260509135549 12 62 0.0 1.6 0.00 0.00 0.00 87 1010.8
20260509135047 12 54 0.0 0.0 0.00 0.00 0.00 86 1010.9
20260509134544 12 43 0.0 1.6 0.00 0.00 0.00 86 1010.6
20260509134041 12 52 0.0 0.0 0.00 0.00 0.00 85 1010.9
20260509133538 12 41 1.6 1.6 0.00 0.00 0.00 85 1010.5
20260509133035 12 6 1.6 1.6 0.00 0.00 0.00 84 1010.9
20260509132533 12 62 0.0 1.6 0.00 0.00 0.00 85 1010.8
20260509132031 12 43 0.0 0.0 0.00 0.00 0.00 86 1010.4
20260509131522 12 47 0.0 0.0 0.00 0.00 0.00 87 1010.2
20260509131019 12 39 3.2 3.2 0.00 0.00 0.00 86 1010.5
20260509130514 12 52 0.0 0.0 0.00 0.00 0.00 86 1010.3
20260509130012 12 50 0.0 0.0 0.00 0.00 0.00 84 1010.4
20260509125508 12 57 1.6 1.6 0.00 0.00 0.00 83 1010.7
20260509125004 12 46 0.0 0.0 0.00 0.00 0.00 84 1010.7
20260509124501 12 41 0.0 0.0 0.00 0.00 0.00 83 1010.9
20260509123958 12 51 0.0 0.0 0.00 0.00 0.00 84 1010.5
20260509123456 12 47 0.0 0.0 0.00 0.00 0.00 83 1010.6
20260509122951 12 46 0.0 0.0 0.00 0.00 0.00 82 1011.1
20260509122449 12 42 0.0 1.6 0.00 0.00 0.00 82 1010.8
20260509121945 12 43 1.6 1.6 0.00 0.00 0.00 82 1010.9
20260509121442 11 51 0.0 1.6 0.00 0.00 0.00 82 1011.1
20260509120940 11 32 1.6 1.6 0.00 0.00 0.00 84 1011.1
20260509120438 11 51 0.0 0.0 0.00 0.00 0.00 85 1010.9
20260509115936 11 40 1.6 3.2 0.00 0.00 0.00 86 1011.0
20260509115433 11 46 0.0 0.0 0.00 0.00 0.00 86 1010.9
20260509114930 11 64 1.6 1.6 0.00 0.00 0.00 87 1011.0
20260509114429 11 49 0.0 0.0 0.00 0.00 0.00 88 1010.8
20260509113928 10 43 1.6 3.2 0.00 0.00 0.00 88 1010.7
20260509113425 10 46 0.0 1.6 0.00 0.00 0.00 88 1010.6
20260509112921 10 54 0.0 0.0 0.00 0.00 0.00 89 1010.7
20260509112419 10 48 0.0 0.0 0.00 0.00 0.00 90 1010.6
20260509111915 10 52 0.0 0.0 0.00 0.00 0.00 90 1010.6
20260509111412 10 64 0.0 1.6 0.00 0.00 0.00 90 1010.7
20260509110910 10 47 1.6 1.6 0.00 0.00 0.00 91 1010.6
20260509110406 10 34 1.6 1.6 0.00 0.00 0.00 91 1010.5
20260509105904 10 43 0.0 1.6 0.00 0.00 0.00 91 1010.7
20260509105403 10 42 0.0 0.0 0.00 0.00 0.00 92 1010.6
20260509104859 9 47 0.0 0.0 0.00 0.00 0.00 92 1010.5
20260509104356 9 33 0.0 1.6 0.00 0.00 0.00 92 1010.8
20260509103853 9 36 1.6 1.6 0.00 0.00 0.00 92 1010.5
20260509103350 9 51 0.0 1.6 0.00 0.00 0.00 93 1010.3
20260509102849 9 57 0.0 1.6 0.00 0.00 0.00 93 1010.4
20260509102346 9 51 0.0 0.0 0.00 0.00 0.00 93 1010.2
20260509101841 9 44 0.0 0.0 0.00 0.00 0.00 93 1010.2
20260509101338 9 68 0.0 0.0 0.00 0.00 0.00 93 1010.1
20260509100836 8 44 0.0 0.0 0.00 0.00 0.00 93 1010.6
20260509100333 8 48 0.0 1.6 0.00 0.00 0.00 93 1010.3
20260509095830 8 49 0.0 0.0 0.00 0.00 0.00 93 1010.4
20260509095327 8 50 0.0 1.6 0.00 0.00 0.00 93 1010.3
20260509094824 8 49 0.0 0.0 0.00 0.00 0.00 93 1010.5
20260509094320 8 46 0.0 0.0 0.00 0.00 0.00 93 1010.7
20260509093818 8 46 0.0 0.0 0.00 0.00 0.00 93 1010.5
20260509093315 8 46 0.0 0.0 0.00 0.00 0.00 93 1010.4
20260509092814 8 46 0.0 0.0 0.00 0.00 0.00 93 1010.5
20260509092311 8 45 0.0 1.6 0.00 0.00 0.00 93 1010.4
20260509091809 8 48 0.0 0.0 0.00 0.00 0.00 93 1010.7
20260509091305 8 48 0.0 0.0 0.00 0.00 0.00 93 1010.5
20260509090803 8 48 0.0 0.0 0.00 0.00 0.00 93 1010.7
20260509090300 8 50 0.0 0.0 0.00 0.00 0.00 93 1010.8
20260509085757 8 48 0.0 0.0 0.00 0.00 0.00 93 1010.7
20260509085254 8 48 0.0 0.0 0.00 0.00 0.00 93 1010.7
20260509084751 8 50 0.0 0.0 0.00 0.00 0.00 93 1010.7
20260509084248 8 43 0.0 1.6 0.00 0.00 0.00 93 1010.7
20260509083746 8 41 1.6 1.6 0.00 0.00 0.00 93 1010.7
20260509083242 8 50 0.0 0.0 0.00 0.00 0.00 93 1011.1
20260509082739 8 46 0.0 0.0 0.00 0.00 0.00 93 1011.0
20260509082235 8 46 0.0 0.0 0.00 0.00 0.00 93 1011.2
20260509081732 8 45 0.0 0.0 0.00 0.00 0.00 93 1011.3
20260509081230 8 46 0.0 0.0 0.00 0.00 0.00 93 1011.3
20260509080728 8 46 0.0 0.0 0.00 0.00 0.00 92 1011.2
20260509080225 8 45 0.0 0.0 0.00 0.00 0.00 92 1011.4
20260509075723 8 45 0.0 0.0 0.00 0.00 0.00 92 1011.3
20260509075221 9 46 0.0 0.0 0.00 0.00 0.00 92 1010.9
20260509074717 9 46 0.0 0.0 0.00 0.00 0.00 91 1011.1
20260509074215 9 46 0.0 1.6 0.00 0.00 0.00 91 1011.3
20260509073711 9 43 0.0 1.6 0.00 0.00 0.00 91 1011.1
20260509073208 9 49 0.0 0.0 0.00 0.00 0.00 91 1011.1
20260509072704 9 49 0.0 0.0 0.00 0.00 0.00 91 1011.1
20260509072201 9 49 0.0 0.0 0.00 0.00 0.00 91 1011.3
20260509071658 9 49 0.0 0.0 0.00 0.00 0.00 91 1011.3
20260509071155 10 49 0.0 0.0 0.00 0.00 0.00 91 1011.2
20260509070652 10 48 0.0 0.0 0.00 0.00 0.00 90 1011.2
20260509070148 10 49 0.0 1.6 0.00 0.00 0.00 90 1011.3